Powrót do katalogu

DMSP 5D-2 F13 DEB

AktywnySSO
NORAD 42268·DEBRIS·🇺🇸 United States

Wystrzelony Mar 24, 1995 z Vandenberg Space Force Base

Loading…

Następne Przeloty (najbliższe 24 godziny)

TLE

ŚwieżeSource: Space-Track

Epoka: Sep 13, 2026, 19:47 UTC

1 42268U 95015GJ  26256.82465000  .00003031  00000-0  16905-2 0  9998
2 42268  98.7260  92.7733 0116167 101.4769 259.9473 14.08235993579764

Śledź DMSP 5D-2 F13 DEB w czasie rzeczywistym z AllMySat

Download on the App Store